Total_Precipitation_Accumulation
0.32 0.29 0.28 0.21 0.20 0.21 0.22 0.27 0.35 0.41 0.33 0.29 0.27 0.31 0.32 0.27 0.24 0.22 0.21 0.24 0.27 0.35 0.41 0.48 0.55 0.63 0.71 0.77 0.80 0.89 1.04 0.95 0.87 0.89 0.93 0.93 1.05 1.09 1.10 1.08 1.18 1.18 0.99
0.28 0.27 0.27 0.22 0.19 0.20 0.23 0.26 0.35 0.42 0.36 0.34 0.30 0.29 0.30 0.30 0.26 0.25 0.25 0.27 0.31 0.37 0.40 0.43 0.48 0.54 0.58 0.61 0.71 0.90 1.10 0.98 1.01 1.17 1.30 1.18 1.23 1.21 1.26 1.23 1.40 1.65 1.15
0.26 0.29 0.25 0.29 0.23 0.20 0.22 0.25 0.33 0.42 0.40 0.41 0.36 0.32 0.32 0.32 0.30 0.30 0.31 0.34 0.41 0.48 0.48 0.50 0.52 0.55 0.56 0.59 0.69 0.85 1.06 1.13 1.24 1.51 1.85 1.62 1.50 1.44 1.38 1.32 1.25 1.27 1.11
0.25 0.26 0.23 0.26 0.28 0.23 0.23 0.25 0.34 0.43 0.42 0.47 0.42 0.36 0.36 0.34 0.35 0.37 0.39 0.41 0.49 0.56 0.58 0.57 0.56 0.57 0.57 0.55 0.65 0.82 1.03 1.21 1.45 1.75 2.15 2.00 1.85 1.89 1.72 1.51 1.29 1.20 1.11
0.31 0.27 0.24 0.25 0.27 0.26 0.26 0.27 0.38 0.46 0.45 0.52 0.48 0.43 0.42 0.42 0.39 0.40 0.43 0.45 0.50 0.56 0.57 0.52 0.48 0.50 0.57 0.56 0.64 0.78 1.04 1.35 1.62 1.90 2.42 2.55 2.59 2.29 1.76 1.46 1.38 1.36 1.26
0.38 0.31 0.24 0.26 0.27 0.30 0.33 0.34 0.46 0.46 0.50 0.58 0.56 0.54 0.51 0.50 0.49 0.48 0.51 0.52 0.52 0.56 0.56 0.55 0.55 0.54 0.60 0.61 0.66 0.77 0.96 1.34 1.55 1.86 2.51 2.70 2.43 2.23 1.82 1.55 1.49 1.38 1.22
0.45 0.37 0.28 0.29 0.34 0.40 0.45 0.46 0.60 0.57 0.60 0.69 0.75 0.69 0.61 0.59 0.56 0.55 0.57 0.59 0.58 0.58 0.58 0.59 0.62 0.61 0.61 0.61 0.66 0.74 0.91 1.23 1.47 2.25 2.51 2.46 2.42 2.30 2.03 1.73 1.58 1.43 1.24
0.49 0.42 0.36 0.35 0.45 0.57 0.62 0.60 0.71 0.67 0.71 0.77 0.83 0.80 0.70 0.64 0.58 0.57 0.59 0.62 0.66 0.69 0.65 0.60 0.57 0.57 0.60 0.63 0.64 0.72 0.92 1.02 1.24 1.83 2.17 2.14 2.02 2.02 2.11 1.81 1.59 1.48 1.35
0.66 0.53 0.46 0.43 0.53 0.73 0.82 0.75 0.76 0.73 0.75 0.82 0.92 0.91 0.80 0.72 0.65 0.63 0.66 0.69 0.71 0.71 0.65 0.59 0.57 0.58 0.60 0.62 0.68 0.72 0.88 1.07 1.25 1.66 1.74 1.90 1.70 1.81 2.08 1.94 1.60 1.46 1.41
0.98 0.79 0.67 0.66 0.71 0.79 0.82 0.86 0.83 0.80 0.86 0.92 0.97 0.94 0.86 0.78 0.73 0.74 0.70 0.75 0.72 0.74 0.74 0.72 0.70 0.70 0.68 0.67 0.71 0.78 0.90 1.05 1.14 1.46 2.08 2.00 1.65 2.02 2.22 2.03 1.75 1.61 1.48
1.14 1.20 1.10 0.96 0.94 0.95 0.91 0.91 0.98 0.95 0.94 0.97 1.00 0.95 0.89 0.91 1.02 0.97 0.84 0.87 0.87 0.92 1.00 0.95 0.89 0.88 0.84 0.83 0.89 0.98 1.01 0.88 1.18 1.78 2.35 2.14 1.92 2.22 2.32 2.17 1.99 1.87 1.71
1.37 1.48 1.48 1.42 1.37 1.29 1.21 1.34 1.34 1.16 1.09 1.07 1.18 1.09 1.06 1.32 1.44 1.26 1.31 1.27 1.24 1.22 1.22 1.21 1.14 1.05 0.97 0.90 1.01 1.10 0.96 1.01 1.46 2.08 2.13 1.73 2.04 2.47 2.58 2.40 2.23 2.17 2.08
1.73 1.55 1.45 1.57 1.66 1.78 1.87 1.73 1.68 1.63 1.61 1.53 1.63 1.55 1.58 1.78 1.71 1.70 1.77 1.63 1.51 1.47 1.43 1.56 1.40 1.09 0.98 1.06 1.17 1.15 1.09 1.20 1.50 1.95 2.06 1.87 2.13 2.59 2.79 2.66 2.42 2.39 2.44
2.02 1.88 1.64 1.59 1.67 1.87 2.05 1.99 1.92 1.87 1.87 1.82 1.87 1.71 1.93 2.11 2.19 2.21 2.27 2.05 1.97 1.94 1.99 1.97 1.84 1.54 1.36 1.32 1.29 1.33 1.40 1.41 1.61 1.90 1.98 1.74 1.89 2.38 2.89 2.93 2.67 2.56 2.56
2.41 2.28 2.11 1.89 1.86 2.00 2.25 2.36 2.22 2.22 2.20 2.31 2.43 2.19 2.22 2.25 2.32 2.63 2.63 2.80 2.46 2.42 2.50 2.44 2.22 2.09 1.90 1.72 1.62 1.57 1.64 1.64 1.70 1.86 1.84 1.78 1.89 2.24 2.72 2.97 2.94 2.94 2.91
3.01 2.72 2.47 2.30 2.14 2.14 2.24 2.51 2.56 2.41 2.47 2.59 2.71 2.58 2.58 2.64 2.75 3.10 3.23 3.21 2.98 3.02 3.21 3.25 3.02 2.73 2.46 2.36 2.13 2.06 2.01 2.04 2.16 2.18 2.09 1.97 1.85 1.93 2.39 2.84 3.14 3.32 3.30
3.20 3.09 2.86 2.74 2.68 2.51 2.47 2.73 2.81 2.71 2.65 2.66 2.86 2.94 2.91 2.99 3.30 3.42 3.72 3.68 3.45 3.46 3.51 3.49 3.70 3.63 3.10 2.75 2.57 2.52 2.49 2.42 2.56 2.67 2.69 2.45 2.12 2.02 2.16 2.48 2.79 3.00 3.13
3.38 3.14 3.06 2.76 2.71 2.92 2.95 3.23 3.15 3.22 3.34 3.24 3.25 3.44 3.46 3.51 3.65 3.71 3.73 3.81 3.71 3.68 3.98 4.10 4.06 3.95 3.67 3.29 3.08 2.85 2.71 2.77 2.62 2.63 2.70 2.59 2.50 2.15 1.99 2.00 2.17 2.39 2.77
2.87 2.92 3.04 2.96 2.92 2.99 3.19 3.55 3.68 3.85 4.03 4.21 4.23 4.42 4.34 4.15 4.10 4.19 4.15 4.26 4.10 4.15 4.12 4.00 4.36 4.26 4.09 3.69 3.21 2.98 2.70 2.70 2.63 2.34 2.36 2.41 2.39 2.25 2.12 1.91 1.98 2.16 2.52
2.79 2.92 3.08 3.24 3.43 3.38 3.41 3.63 4.07 4.30 4.44 4.81 4.86 4.89 4.98 4.97 4.84 4.84 4.80 4.79 4.63 4.50 4.38 4.33 4.38 4.18 4.05 3.77 3.23 2.98 2.66 2.34 2.30 2.31 2.08 2.16 2.15 1.98 2.05 2.03 2.07 1.94 2.17
2.94 3.10 3.09 3.29 3.65 3.88 4.24 4.22 4.41 4.86 5.23 5.35 5.44 5.42 5.34 5.27 5.27 5.11 4.95 5.05 4.88 4.64 4.40 4.32 4.29 4.19 3.87 3.77 3.75 3.34 2.73 2.35 2.16 2.00 2.00 2.03 1.88 1.89 2.14 2.11 2.05 1.95 1.87
2.93 3.19 3.32 3.47 3.93 4.41 4.94 5.44 5.82 6.17 6.16 6.27 6.22 6.10 5.80 5.62 5.54 5.38 5.36 5.18 4.94 4.77 4.50 4.33 4.27 4.16 3.83 3.79 3.83 3.79 3.08 2.56 2.02 1.60 1.70 1.75 1.70 1.76 1.86 1.81 1.77 1.82 1.84
2.87 3.15 3.33 3.69 4.35 5.17 5.69 6.16 6.72 7.03 6.72 6.43 6.15 6.07 5.99 5.91 5.81 5.67 5.64 5.38 5.12 4.84 4.48 4.22 4.09 3.98 3.84 3.82 3.73 3.87 3.33 2.68 2.17 1.77 1.57 1.48 1.54 1.68 1.68 1.72 1.67 1.66 1.74
2.92 3.05 3.28 3.92 4.66 5.32 5.89 6.50 7.10 7.40 7.43 7.20 6.64 6.16 5.76 5.47 5.25 5.12 5.07 4.91 4.71 4.41 4.16 3.86 3.76 3.71 3.83 3.67 3.60 3.43 3.17 2.79 2.55 2.19 1.84 1.62 1.55 1.56 1.58 1.59 1.59 1.62 1.70
2.61 3.10 3.45 4.04 4.74 5.40 6.16 6.91 7.37 7.61 7.59 7.22 6.43 5.65 5.11 4.80 4.51 4.26 4.18 4.09 3.94 3.74 3.55 3.46 3.46 3.41 3.39 3.25 3.12 3.10 3.10 3.02 2.72 2.40 2.08 1.82 1.72 1.62 1.60 1.62 1.73 1.74 1.71
2.54 2.95 3.44 3.75 4.36 5.05 5.67 6.26 6.50 6.69 6.63 6.20 5.78 5.28 4.86 4.34 3.88 3.52 3.36 3.26 3.12 3.01 2.99 3.00 3.04 3.02 3.02 3.00 2.93 2.82 2.75 2.73 2.56 2.47 2.21 1.97 1.95 1.81 1.72 1.65 1.61 1.66 1.69